Regional Weather Roundup
Issued by NWS

Home | Current Version | Previous Version | Graphics & Text | Print | Product List | Glossary On
Versions: 1 2 3 4 5 6 7 8 9 10 11 12 13 14 15 16 17 18 19 20 21 22 23 24 25 26 27 28 29 30 31 32 33 34 35 36 37 38 39 40 41 42 43 44 45 46 47 48 49 50
000
ASUS43 KFSD 191902
RWRSD

WEATHER ROUNDUP FOR SOUTH DAKOTA
NATIONAL WEATHER SERVICE SIOUX FALLS SD
200 PM CDT SUN APR 19 2015

NOTE: "FAIR" INDICATES FEW OR NO CLOUDS BELOW 12,000 FEET WITH NO
SIGNIFICANT WEATHER AND/OR OBSTRUCTIONS TO VISIBILITY.


SDZ001>005-009-010-012>017-192000-
NORTHWEST AND NORTH CENTRAL SOUTH DAKOTA

CITY           SKY/WX    TMP DP  RH WIND       PRES   REMARKS
BUFFALO          N/A     47  26  44 NW37G47   29.94S
FAITH            N/A     46  27  47 NW36G44   29.94F
MOBRIDGE       CLOUDY    48  34  58 NW23G32   29.87S
$$

SDZ012>016-024>037-041>051-057-063-072>074-192000-
SOUTHWEST AND SOUTH CENTRAL SOUTH DAKOTA

CITY           SKY/WX    TMP DP  RH WIND       PRES   REMARKS
RAPID CTY ARPT MOSUNNY   51  23  33 NW40G51   30.00F
PIERRE         CLOUDY    51  30  44 NW29G39   29.90S
CUSTER         PTSUNNY   38  16  40 NW15G28   30.01F
ELLSWORTH AFB  PTSUNNY   51  23  33 NW33G44   29.99S
PHILIP         CLOUDY    52  24  33 NW30G40   29.97S
PINE RIDGE     CLOUDY    48  21  34 N22G30    30.02F
WINNER         CLOUDY    51  27  39 NW29G43   29.92S
$$

SDZ004>011-016>023-039-040-192000-
NORTHEAST SOUTH DAKOTA

CITY           SKY/WX    TMP DP  RH WIND       PRES   REMARKS
ABERDEEN       CLOUDY    53  30  41 NW24      29.81F
WATERTOWN      PTSUNNY   50  36  58 NW24G31   29.76F
BROOKINGS      CLOUDY    48  37  66 NW18G26   29.78F
SISSETON         N/A     53  38  56 N26       29.72F
$$

SDZ017-020-022-023-036>040-048>070-192000-
SOUTHEAST SOUTH DAKOTA

CITY           SKY/WX    TMP DP  RH WIND       PRES   REMARKS
SIOUX FALLS    CLOUDY    50  40  68 NW22G28   29.77F
HURON          PTSUNNY   54  30  40 NW31G37   29.83S
MITCHELL       CLOUDY    55  31  39 NW29      29.84S
YANKTON        CLOUDY    54  34  47 NW28G37   29.81F
$$

ABBREVIATIONS USED IN REMARKS
   TC - TEMPERATURE IN CELSIUS
  WCI - WIND CHILL INDEX
   HX - HEAT INDEX
  VSB - VISIBILITY




USA.gov is the U.S. government's official web portal to all federal, state and local government web resources and services.